Regional Weather Roundup
Issued by NWS

Home | Current Version | Previous Version | Graphics & Text | Print | Product List | Glossary On
Versions: 1 2 3 4 5 6 7 8 9 10 11 12 13 14 15 16 17 18 19 20 21 22 23 24 25 26 27 28 29 30 31 32 33 34 35 36 37 38 39 40 41 42 43 44 45 46 47 48 49 50
644
ASUS45 KCYS 260510
RWRWY

WYOMING REGIONAL WEATHER ROUNDUP
NATIONAL WEATHER SERVICE CHEYENNE WY
1100 PM MDT TUE JUL 25 2017

NOTE:  "FAIR" INDICATES FEW OR NO CLOUDS BELOW 12,000 FEET
WITH NO SIGNIFICANT WEATHER AND/OR OBSTRUCTIONS TO VISIBILITY.

WYZ001-260600-
YELLOWSTONE NATIONAL PARK

CITY           SKY/WX    TMP DP  RH WIND       PRES   REMARKS
LK YELLOWSTONE   N/A     46  46 100 NW3       30.39S
W YELLOWSTONE  NOT AVBL

$$
WYZ002>013-054>058-071-098>099-260600-
NORTHERN WYOMING

CITY           SKY/WX    TMP DP  RH WIND       PRES   REMARKS
JACKSON        FAIR      54  54 100 CALM      30.29R
CODY           FAIR      59  53  80 CALM      30.21F
GREYBULL       FAIR      63  54  72 CALM      30.15S
WORLAND        FAIR      60  51  72 S5        30.17F
SHERIDAN       FAIR      62  59  90 CALM      30.12F
BUFFALO        CLOUDY    63  58  83 S10       30.21S
GILLETTE       CLOUDY    64  61  90 CALM      30.16F
HULETT         LGT RAIN  63  59  88 S6        30.18F
NEWCASTLE      FAIR      64  59  82 NW5       30.16S

$$
WYZ014>020-022>026-101>103-260600-
CENTRAL WYOMING

CITY           SKY/WX    TMP DP  RH WIND       PRES   REMARKS
BIG PINEY      CLOUDY    57  56  96 SW5       30.32R
PINEDALE       CLOUDY    59  50  72 NW10      30.33R
DUBOIS         FAIR      54  43  66 CALM      30.34R
LANDER         CLOUDY    65  50  58 CALM      30.25R
RIVERTON       CLOUDY    65  54  67 SE6       30.25S
CASPER         CLOUDY    62  57  83 E7        30.25S
DOUGLAS        LGT RAIN  61  59  93 W6        30.23S

$$
WYZ021-027>030-104>119-260600-
SOUTHERN WYOMING

CITY           SKY/WX    TMP DP  RH WIND       PRES   REMARKS
EVANSTON       FAIR      61  54  77 SW5       30.30R
KEMMERER         N/A    N/A N/A N/A N13       30.32R
FORT BRIDGER   CLOUDY    61  53  74 W7        30.32R
ROCK SPRINGS   LGT RAIN  58  54  86 NE13      30.31R
RAWLINS        LGT RAIN  57  55  93 E12       30.30S
SARATOGA       CLOUDY    63  61  94 S8        30.29S
LARAMIE        CLOUDY    58  56  93 CALM      30.33S
CHEYENNE       FAIR      65  54  67 N20G26    30.24R
TORRINGTON     FAIR      74  57  55 N7        30.11R
PINE BLUFFS    FAIR      68  54  60 N14G21    30.17R

$$




USA.gov is the U.S. government's official web portal to all federal, state and local government web resources and services.